• în Republica Moldova
  • Lista ţărilor
  • Pe 7 zile
  • Temperatura apei
  • Hartă satelitară
  • Meteo pe hartă
  • Widget-uri
  • user-avatar
    Intrare

    Meteo pe oră la Berezovka

    Astăzi, 20 Septembrie, Joi

    Timp Temperatura Precipitaţii Vânt Presiune Umiditate
    00:00 +17°C° 0 mm 2 m/s 751 mmHg 83%
    01:00 +16°C° 0 mm 2 m/s 752 mmHg 84%
    02:00 +16°C° 0 mm 2 m/s 752 mmHg 85%
    03:00 +16°C° 0 mm 2 m/s 752 mmHg 86%
    04:00 +15°C° 0 mm 2 m/s 752 mmHg 87%
    05:00 +15°C° 0 mm 2 m/s 752 mmHg 88%
    06:00 +16°C° 0 mm 2 m/s 752 mmHg 84%
    07:00 +17°C° 0 mm 2 m/s 752 mmHg 79%
    08:00 +18°C° 0 mm 2 m/s 752 mmHg 75%
    09:00 +21°C° 0 mm 2 m/s 752 mmHg 68%
    10:00 +24°C° 0 mm 2 m/s 752 mmHg 60%
    11:00 +26°C° 0 mm 2 m/s 752 mmHg 53%
    12:00 +27°C° 0 mm 2 m/s 752 mmHg 50%
    13:00 +27°C° 0 mm 2 m/s 752 mmHg 47%
    14:00 +28°C° 0 mm 2 m/s 752 mmHg 44%
    15:00 +27°C° 0 mm 2 m/s 752 mmHg 48%
    16:00 +27°C° 0 mm 1 m/s 751 mmHg 52%
    17:00 +26°C° 0 mm 1 m/s 751 mmHg 55%
    18:00 +24°C° 0 mm 1 m/s 751 mmHg 60%
    19:00 +22°C° 0 mm 1 m/s 752 mmHg 64%
    20:00 +20°C° 0 mm 1 m/s 752 mmHg 69%
    21:00 +20°C° 0 mm 1 m/s 752 mmHg 70%
    22:00 +20°C° 0 mm 1 m/s 752 mmHg 72%
    23:00 +19°C° 0 mm 1 m/s 752 mmHg 73%

    Mâine, 21 Septembrie, Vineri

    Timp Temperatura Precipitaţii Vânt Presiune Umiditate
    00:00 +19°C° 0 mm 1 m/s 752 mmHg 75%
    01:00 +18°C° 0 mm 1 m/s 752 mmHg 76%
    02:00 +18°C° 0 mm 1 m/s 752 mmHg 77%
    03:00 +16°C° 0 mm 1 m/s 752 mmHg 78%
    04:00 +16°C° 0 mm 1 m/s 752 mmHg 80%
    05:00 +15°C° 0 mm 0 m/s 752 mmHg 81%
    06:00 +16°C° 0 mm 0 m/s 752 mmHg 76%
    07:00 +17°C° 0 mm 0 m/s 752 mmHg 72%
    08:00 +21°C° 0 mm 1 m/s 752 mmHg 67%
    09:00 +23°C° 0 mm 1 m/s 752 mmHg 61%
    10:00 +24°C° 0 mm 1 m/s 752 mmHg 55%
    11:00 +26°C° 0 mm 2 m/s 752 mmHg 49%
    12:00 +27°C° 0 mm 2 m/s 752 mmHg 46%
    13:00 +27°C° 0 mm 2 m/s 751 mmHg 44%
    14:00 +28°C° 0 mm 3 m/s 751 mmHg 41%
    15:00 +27°C° 0 mm 2 m/s 751 mmHg 45%
    16:00 +26°C° 0 mm 2 m/s 750 mmHg 49%
    17:00 +25°C° 0 mm 2 m/s 750 mmHg 53%
    18:00 +24°C° 0 mm 2 m/s 750 mmHg 57%
    19:00 +21°C° 0 mm 2 m/s 750 mmHg 62%
    20:00 +19°C° 0 mm 2 m/s 750 mmHg 66%
    21:00 +19°C° 0 mm 2 m/s 750 mmHg 68%
    22:00 +18°C° 0 mm 3 m/s 750 mmHg 70%
    23:00 +18°C° 0 mm 3 m/s 750 mmHg 71%

    Poimâine, 22 Septembrie, Sâmbătă

    Timp Temperatura Precipitaţii Vânt Presiune Umiditate
    00:00 +18°C° 0 mm 3 m/s 749 mmHg 71%
    01:00 +18°C° 0 mm 3 m/s 749 mmHg 71%
    02:00 +17°C° 0 mm 3 m/s 749 mmHg 70%
    03:00 +17°C° 0 mm 3 m/s 749 mmHg 69%
    04:00 +17°C° 0 mm 3 m/s 748 mmHg 69%
    05:00 +16°C° 0 mm 3 m/s 748 mmHg 68%
    06:00 +17°C° 0 mm 4 m/s 748 mmHg 64%
    07:00 +18°C° 0 mm 4 m/s 748 mmHg 61%
    08:00 +19°C° 0 mm 4 m/s 748 mmHg 57%
    09:00 +21°C° 0 mm 4 m/s 748 mmHg 54%
    10:00 +22°C° 0 mm 4 m/s 747 mmHg 50%
    11:00 +25°C° 0 mm 4 m/s 747 mmHg 47%
    12:00 +25°C° 0 mm 4 m/s 747 mmHg 50%
    13:00 +23°C° 0 mm 4 m/s 747 mmHg 53%
    14:00 +23°C° 0 mm 5 m/s 747 mmHg 56%
    15:00 +21°C° 0.1 mm 5 m/s 748 mmHg 62%
    16:00 +19°C° 0.1 mm 5 m/s 748 mmHg 68%
    17:00 +15°C° 0.1 mm 5 m/s 748 mmHg 74%
    18:00 +14°C° 0.1 mm 4 m/s 748 mmHg 73%
    19:00 +13°C° 0.1 mm 4 m/s 749 mmHg 73%
    20:00 +13°C° 0.1 mm 4 m/s 749 mmHg 72%
    21:00 +12°C° 0.6 mm 4 m/s 749 mmHg 78%
    22:00 +11°C° 0.6 mm 3 m/s 749 mmHg 83%
    23:00 +10°C° 0.6 mm 3 m/s 749 mmHg 89%

    23 Septembrie, Duminică

    Timp Temperatura Precipitaţii Vânt Presiune Umiditate
    00:00 +10°C° 1.2 mm 3 m/s 749 mmHg 89%
    01:00 +9°C° 1.2 mm 3 m/s 749 mmHg 90%
    02:00 +9°C° 1.2 mm 3 m/s 749 mmHg 91%
    03:00 +9°C° 0.1 mm 3 m/s 749 mmHg 91%
    04:00 +9°C° 0.1 mm 3 m/s 749 mmHg 91%
    05:00 +9°C° 0.1 mm 3 m/s 749 mmHg 91%
    06:00 +8°C° 0 mm 4 m/s 749 mmHg 90%
    07:00 +8°C° 0 mm 4 m/s 749 mmHg 89%
    08:00 +10°C° 0 mm 4 m/s 748 mmHg 88%
    09:00 +10°C° 0 mm 5 m/s 748 mmHg 77%
    10:00 +13°C° 0 mm 5 m/s 748 mmHg 67%
    11:00 +15°C° 0 mm 6 m/s 748 mmHg 57%
    12:00 +15°C° 0 mm 6 m/s 748 mmHg 53%
    13:00 +16°C° 0 mm 6 m/s 748 mmHg 49%
    14:00 +16°C° 0 mm 6 m/s 748 mmHg 45%
    15:00 +16°C° 0 mm 5 m/s 748 mmHg 48%
    16:00 +15°C° 0 mm 4 m/s 748 mmHg 50%
    17:00 +14°C° 0 mm 3 m/s 748 mmHg 53%
    18:00 +13°C° 0 mm 3 m/s 748 mmHg 57%
    19:00 +12°C° 0 mm 3 m/s 748 mmHg 61%
    20:00 +10°C° 0 mm 2 m/s 748 mmHg 65%
    21:00 +10°C° 0 mm 2 m/s 748 mmHg 67%
    22:00 +9°C° 0 mm 2 m/s 748 mmHg 69%
    23:00 +9°C° 0 mm 2 m/s 748 mmHg 71%

    24 Septembrie, Luni

    Timp Temperatura Precipitaţii Vânt Presiune Umiditate
    00:00 +9°C° 0 mm 2 m/s 747 mmHg 71%
    01:00 +9°C° 0 mm 2 m/s 747 mmHg 71%
    02:00 +9°C° 0 mm 2 m/s 747 mmHg 72%
    03:00 +9°C° 0.3 mm 3 m/s 746 mmHg 74%
    04:00 +9°C° 0.3 mm 3 m/s 745 mmHg 77%
    05:00 +10°C° 0.3 mm 4 m/s 745 mmHg 79%
    06:00 +10°C° 0.5 mm 4 m/s 743 mmHg 81%
    07:00 +9°C° 0.5 mm 5 m/s 742 mmHg 82%
    08:00 +9°C° 0.5 mm 6 m/s 741 mmHg 83%
    09:00 +9°C° 0.5 mm 6 m/s 740 mmHg 81%
    10:00 +10°C° 0.5 mm 6 m/s 739 mmHg 80%
    11:00 +10°C° 0.5 mm 6 m/s 738 mmHg 78%
    12:00 +13°C° 0.4 mm 6 m/s 737 mmHg 77%
    13:00 +14°C° 0.4 mm 6 m/s 736 mmHg 77%
    14:00 +15°C° 0.4 mm 6 m/s 734 mmHg 76%
    15:00 +16°C° 2.5 mm 6 m/s 734 mmHg 80%
    16:00 +16°C° 2.5 mm 7 m/s 733 mmHg 84%
    17:00 +16°C° 2.5 mm 7 m/s 732 mmHg 89%
    18:00 +15°C° 0.4 mm 7 m/s 732 mmHg 87%
    19:00 +12°C° 0.4 mm 7 m/s 732 mmHg 85%
    20:00 +11°C° 0.4 mm 6 m/s 731 mmHg 84%
    21:00 +10°C° 0 mm 7 m/s 731 mmHg 82%
    22:00 +10°C° 0 mm 7 m/s 731 mmHg 81%
    23:00 +9°C° 0 mm 7 m/s 731 mmHg 79%

    25 Septembrie, Marţi

    Timp Temperatura Precipitaţii Vânt Presiune Umiditate
    00:00 +9°C° 0.1 mm 7 m/s 731 mmHg 79%
    01:00 +9°C° 0.1 mm 7 m/s 730 mmHg 78%
    02:00 +9°C° 0.1 mm 7 m/s 730 mmHg 77%
    03:00 +9°C° 0.2 mm 7 m/s 730 mmHg 79%
    04:00 +9°C° 0.2 mm 7 m/s 731 mmHg 82%
    05:00 +7°C° 0.2 mm 8 m/s 731 mmHg 84%
    06:00 +7°C° 0.4 mm 8 m/s 732 mmHg 84%
    07:00 +7°C° 0.4 mm 8 m/s 733 mmHg 83%
    08:00 +6°C° 0.4 mm 9 m/s 734 mmHg 83%
    09:00 +7°C° 0.3 mm 9 m/s 736 mmHg 82%
    10:00 +7°C° 0.3 mm 8 m/s 737 mmHg 81%
    11:00 +7°C° 0.3 mm 8 m/s 738 mmHg 80%
    12:00 +7°C° 0.1 mm 8 m/s 739 mmHg 76%
    13:00 +7°C° 0.1 mm 8 m/s 740 mmHg 73%
    14:00 +7°C° 0.1 mm 8 m/s 741 mmHg 70%
    15:00 +8°C° 0 mm 7 m/s 742 mmHg 66%
    16:00 +9°C° 0 mm 6 m/s 742 mmHg 63%
    17:00 +9°C° 0 mm 5 m/s 743 mmHg 60%
    18:00 +8°C° 0 mm 5 m/s 744 mmHg 62%
    19:00 +7°C° 0 mm 5 m/s 744 mmHg 64%
    20:00 +6°C° 0 mm 4 m/s 745 mmHg 66%
    21:00 +6°C° 0 mm 4 m/s 746 mmHg 68%
    22:00 +5°C° 0 mm 4 m/s 746 mmHg 70%
    23:00 +5°C° 0 mm 5 m/s 747 mmHg 71%
    Arată mai mult